View from above orbital plane
|
View from above satellite
|
Ground track
|
The orbit data is extracted from the following two-line orbital elements,
1 46U 60007B 21102.88482982 .00000021 00000-0 27167-4 0 9998
2 46 66.6901 317.4017 0217633 268.1026 89.5147 14.49385677182492
Epoch (UTC): | 12 April 2021 21:14:09 |
Eccentricity: | 0.0217633 |
inclination: | 66.6901° |
perigee height: | 573 km |
apogee height: | 882 km |
right ascension of ascending node: | 317.4017° |
argument of perigee: | 268.1026° |
revolutions per day: | 14.49385677 |
mean anomaly at epoch: | 89.5147° |
orbit number at epoch: | 18249 |
The dashed part of the orbit path shows where the satellite is in the earth's shadow,
|
|